Погода в Кунье

Россия / Псковская область     56°17′21″N   30°58′24″E
темп.,
°C
ветер,
м/с
пор.,
м/с
влажн.,
%
обл.,
%
осадки,
мм/ч
давл.,
гПа
погр.,
м
10 августа, ср
ср1000:00+12ссв239414 0.0 102554
03:00+11ссв229686 0.0 102536
06:00+11с2596100 0.0 1026100
09:00+16с247285 0.0 1025409
12:00+21с22544 0.1 10251328
15:00+19всв237880 1.6 1025316
18:00+21ссв235427 0.1 1024936
21:00+14св248617 0.1 102571
11 августа, чт
чт1100:00+13св238786 0.0 102548
03:00+15св2274100 0.0 102545
06:00+15всв227696 0.0 102647
09:00+18в136467 0.0 1026323
12:00+23вюв22420 0.0 10251719
15:00+25вюв11370 0.0 10241976
18:00+24в01450 0.0 10241850
21:00+16ссв11690 0.0 102411
12 августа, пт
пт1200:00+15всв117480 0.0 102511
03:00+13в1178100 0.0 102510
06:00+13юв1177100 0.0 102610
09:00+19ююв015955 0.0 1026203
12:00+25з004486 0.0 10251009
15:00+26сз1138100 0.0 10241477
18:00+25зсз114984 0.0 1024400
21:00+18ссв00630 0.0 102411
13 августа, сб
сб1300:00+16всв11710 0.0 102411
03:00+15вюв11790 0.0 102511
06:00+14вюв22810 0.0 102521
09:00+21юв23590 0.0 1024272
12:00+26вюв12431 0.0 10231190
15:00+28вюв11374 0.0 10221739
18:00+27вюв11483 0.0 1021889
21:00+20в11652 0.0 102211
14 августа, вс
вс1400:00+18в226913 0.0 102117
03:00+16вюв12807 0.0 102112
06:00+16вюв228744 0.0 102128
09:00+22вюв236483 0.0 1021312
12:00+27вюв22478 0.0 10201142
15:00+28ююв224491 0.0 10191605
18:00+24зюз226866 0.0 101955
21:00+22в1168100 0.0 101813